Location: ??
(35.1714°N, 128.2806°E)
Time: 14:55:08
(UTC+00:00)

Cosmos 1190 Rocket - Pass Details

Date: 29 October 2020
Orbit: 757 x 779 km, 74.1° (Epoch: 01 December)

Event Time Altitude Azimuth Distance (km) Brightness Sun altitude
Rises 20:26:15 0° 188° (S) 3,226 7.2 -16.9°
Reaches altitude 10° 20:28:38 10° 185° (S) 2,300 6.5 -16.4°
Maximum altitude 20:33:47 66° 105° (ESE) 836 4.4 -15.3°
Drops below altitude 10° 20:38:57 10° 24° (NNE) 2,300 6.7 -14.3°
Sets 20:41:20 0° 21° (NNE) 3,227 7.4 -13.8°
